Atlanta Fulton, GA

2:05 AM EDT on October 23, 2019 (GMT -0400)
Fulton County-Brown

Weather History for KFTY - August, 2019

Change the Weather History Date:

Sunday, August 25, 2019

  Actual Average Record
Temperature  
Mean Temperature 73 °F 78 °F  
Max Temperature 78 °F 87 °F 96 °F (2007)
Min Temperature 68 °F 69 °F 60 °F (1997)
Cooling Degree Days 8 13  
Month to date cooling degree days 428 354  
Year to date cooling degree days 1646 1363  
Since 1 June cooling degree days 1280 1163  
Growing Degree Days 22 (Base 50)    
Moisture  
Dew Point 63 °F    
Average Humidity 74    
Maximum Humidity 84    
Minimum Humidity 64    
Precipitation  
Precipitation 0.05 in 0.15 in 1.77 in (1985)
Month to date precipitation 1.18 4.01  
Year to date precipitation 29.84 34.69  
Sea Level Pressure  
Sea Level Pressure 30.06 in    
Wind  
Wind Speed 9 mph (East)    
Max Wind Speed 17 mph    
Max Gust Speed 23 mph    
Visibility 10 miles    
Events Rain    
T = Trace of Precipitation, MM = Missing Value Source: NWS Daily Summary

Daily Weather History Graph

Daily Weather History Graph

Search for Another Location

Airport or City:

Astronomy

Aug. 25, 2019 Rise Set
Actual Time 7:06 AM EDT 8:12 PM EDT
Civil Twilight 6:41 AM EDT 8:38 PM EDT
Nautical Twilight 6:10 AM EDT 9:09 PM EDT
Astronomical Twilight 5:38 AM EDT 9:40 PM EDT
Moon 1:49 AM EDT (8/25) 4:23 PM EDT (8/25)
Length of Visible Light 13h 57m
Length of Day
13h 06m
Waning Crescent, 29% of the Moon is Illuminated
Aug 25
Waning Crescent
Aug 30
New
Sep 5
First Quarter
Sep 14
Full
Sep 21
Last Quarter

Hourly Weather History & Observations

Time (EDT) Temp. Dew Point Humidity Pressure Visibility Wind Dir Wind Speed Gust Speed Precip Events Conditions
12:53 AM 72.0 °F 66.9 °F 84% 30.07 in 10.0 mi East 12.7 mph - 0.00 in   Overcast
1:53 AM 71.1 °F 64.9 °F 81% 30.06 in 10.0 mi East 10.4 mph - N/A   Overcast
2:53 AM 70.0 °F 64.0 °F 81% 30.04 in 10.0 mi ENE 12.7 mph - N/A   Overcast
3:32 AM 70.0 °F 63.0 °F 78% 30.07 in 10.0 mi East 9.2 mph - 0.00 in Rain Light Rain
3:53 AM 70.0 °F 63.0 °F 78% 30.04 in 10.0 mi East 10.4 mph - 0.00 in Rain Light Rain
4:11 AM 70.0 °F 63.0 °F 78% 30.07 in 10.0 mi ENE 12.7 mph - 0.00 in   Overcast
4:53 AM 69.1 °F 63.0 °F 81% 30.03 in 10.0 mi East 10.4 mph - 0.00 in   Overcast
5:53 AM 69.1 °F 63.0 °F 81% 30.05 in 10.0 mi East 10.4 mph - N/A   Overcast
6:53 AM 69.1 °F 62.1 °F 78% 30.06 in 10.0 mi East 10.4 mph - N/A   Overcast
7:17 AM 69.1 °F 62.1 °F 78% 30.09 in 10.0 mi ENE 11.5 mph - N/A   Overcast
7:34 AM 69.1 °F 63.0 °F 81% 30.09 in 10.0 mi ENE 11.5 mph - N/A   Overcast
7:53 AM 68.0 °F 63.0 °F 84% 30.08 in 10.0 mi East 8.1 mph - N/A   Overcast
8:53 AM 68.0 °F 62.1 °F 81% 30.08 in 10.0 mi East 9.2 mph - N/A   Overcast
9:53 AM 69.1 °F 62.1 °F 78% 30.09 in 10.0 mi ENE 10.4 mph - N/A   Overcast
10:38 AM 70.0 °F 61.0 °F 73% 30.12 in 10.0 mi East 13.8 mph - N/A   Overcast
10:53 AM 70.0 °F 61.0 °F 73% 30.10 in 10.0 mi ENE 17.3 mph 23.0 mph N/A   Overcast
11:53 AM 72.0 °F 61.0 °F 68% 30.10 in 10.0 mi East 13.8 mph - N/A   Overcast
12:53 PM 73.9 °F 63.0 °F 68% 30.09 in 10.0 mi East 10.4 mph - N/A   Overcast
1:53 PM 75.0 °F 63.0 °F 66% 30.07 in 10.0 mi ENE 9.2 mph - N/A   Overcast
2:53 PM 75.0 °F 63.0 °F 66% 30.05 in 10.0 mi East 8.1 mph - N/A   Overcast
3:53 PM 77.0 °F 64.0 °F 64% 30.03 in 10.0 mi East 8.1 mph - N/A   Overcast
4:53 PM 75.9 °F 64.0 °F 67% 30.01 in 10.0 mi ENE 6.9 mph - N/A   Overcast
5:53 PM 77.0 °F 64.9 °F 66% 30.00 in 10.0 mi ENE 9.2 mph - N/A   Overcast
6:53 PM 75.9 °F 64.9 °F 69% 30.01 in 10.0 mi East 5.8 mph - N/A   Overcast
7:53 PM 75.9 °F 64.9 °F 69% 30.01 in 10.0 mi East 5.8 mph - N/A   Overcast
8:53 PM 75.9 °F 64.9 °F 69% 30.02 in 10.0 mi ESE 6.9 mph - N/A   Overcast
9:53 PM 75.9 °F 64.9 °F 69% 30.04 in 10.0 mi East 9.2 mph - N/A   Overcast
10:53 PM 75.0 °F 64.9 °F 71% 30.06 in 10.0 mi East 10.4 mph - N/A   Overcast
11:53 PM 73.0 °F 64.9 °F 76% 30.06 in 10.0 mi East 5.8 mph - 0.05 in   Overcast